Weather Roundup
Issued by NWS Chicago, IL

Home | Current Version | Previous Version | Graphics & Text | Print | Product List | Glossary On
Versions: 1 2 3 4 5 6 7 8 9 10 11 12 13 14 15 16 17 18 19 20 21 22 23 24 25 26 27 28 29 30 31 32 33 34 35 36 37 38 39 40 41 42 43 44 45 46 47 48 49 50
000
NZUS59 KLOT 061803
HRRLOT

CHICAGO AREA WEATHER ROUNDUP
NATIONAL WEATHER SERVICE CHICAGO/ROMEOVILLE IL
1200 PM CST SAT FEB 06 2016

NOTE: "FAIR" INDICATES FEW OR NO CLOUDS BELOW 12,000 FEET WITH NO
SIGNIFICANT WEATHER AND/OR OBSTRUCTIONS TO VISIBILITY.

* THESE STATIONS ARE NOT UNDER NWS QUALITY CONTROL. THEY ALSO MAY NOT
  REPORT WEATHER SUCH AS PRECIPITATION OR FOG.

ILZ005-006-012>014-019>023-061900-
NORTHEAST ILLINOIS

CITY           SKY/WX    TMP DP  RH WIND       PRES   REMARKS
OHARE          PTSUNNY   34  26  72 SW15      30.21F WCI  24
6HR MIN TEMP:  24; 6HR MAX TEMP:  35;

MIDWAY         PTSUNNY   37  25  61 W14       30.23F
6HR MIN TEMP:  26; 6HR MAX TEMP:  38;

AURORA         PTSUNNY   37  28  70 W10       30.22F
6HR MIN TEMP:  24; 6HR MAX TEMP:  38;

LANSING*       MOSUNNY   37  27  66 SW13      30.24F
WAUKEGAN       CLOUDY    33  26  75 SW14G23   30.18F WCI  23
6HR MIN TEMP:  24; 6HR MAX TEMP:  34;

DUPAGE AIRPORT PTSUNNY   36  26  67 W14       30.21F
6HR MIN TEMP:  21; 6HR MAX TEMP:  36;

WHEELING       CLOUDY    35  26  69 W10       30.21F WCI  27
6HR MIN TEMP:  25; 6HR MAX TEMP:  35;

$$

WIZ051-052-058>065-066-070>072-061900-
SOUTHEAST WISCONSIN

CITY           SKY/WX    TMP DP  RH WIND       PRES   REMARKS
MILWAUKEE      CLOUDY    33  24  69 W14       30.16F WCI  23
6HR MIN TEMP:  26; 6HR MAX TEMP:  33;

KENOSHA*       CLOUDY    33  26  75 SW15      30.18F WCI  23
RACINE*        CLOUDY    33  24  69 SW13      30.19F WCI  24
BURLINGTON     CLOUDY    30  24  79 SW12      30.18F WCI  21
WAUKESHA       CLOUDY    28  25  86 SW12      30.17F FOG     WCI  18
$$

INZ001>003-010>013-019-020-061900-
NORTHWEST INDIANA

CITY           SKY/WX    TMP DP  RH WIND       PRES   REMARKS
GARY*          MOSUNNY   37  23  56 SW14      30.24F
MICHIGAN CITY* NOT AVBL
RENSSELAER*    NOT AVBL
VALPARAISO     SUNNY     37  24  59 SW13      30.24F
$$

LMZ740>746-061900-
SOUTHERN LAKE MICHIGAN

STATION/POSITION TIME  SKY/WX   TEMP WIND        PRES    VSBY
                                AIR  DIR/SP/G
                 (UTC)          (F)  (DEG/KT/KT) (MB)    (MI)
HARRISON CRIB    1700            34  240/  7/  9   N/A
BURNHAM HARBOR   1800            36  240/  9/ 14   N/A
CALUMET HARBOR   1700            35  210/  9/ 13 1023.7F
BURNS HARBOR     1700            34  210/ 12/ 16 1025.1F
MICHIGAN CITY    1700            33  190/ 13/ 14   N/A
$$

ABBREVIATIONS USED IN REMARKS
   TC - TEMPERATURE IN CELSIUS
  WCI - WIND CHILL INDEX
   HX - HEAT INDEX
  VSB - VISIBILITY
$$



USA.gov is the U.S. government's official web portal to all federal, state and local government web resources and services.